Home   Weather   Carrollton   Past weeks

Flag for USA Past Weather in Carrollton, Texas, USA — Yesterday and Last 2 Weeks

Now
96 °F

Passing clouds.


Feels Like: 102 °F
Forecast: 81 / 98 °F
Wind: 13 mph from Southeast

Location: Dallas Love Field

Current Time: Jul 20, 2017 at 8:01:39 pm

Latest Report: Jul 20, 2017 at 6:53 pm


Visibility: 10 mi

Pressure: 29.93 "Hg

Humidity: 41%

Dew Point: 69 °F

Location of CarrolltonLocation

Past Weather in Carrollton — Graph

°F

Carrollton Temperature Yesterday

Maximum temperature yesterday: 97 °F (at 3:53 pm)
Minimum temperature yesterday: 82 °F (at 5:53 am)
Average temperature yesterday: 90 °F

High & Low Weather Summary for the Past Weeks

 TemperatureHumidityPressure
High98 °F (Jul 20, 1:53 pm)91% (Jul 6, 4:53 am)30.11 "Hg (Jul 6, 4:53 am)
Low74 °F (Jul 6, 1:53 am)35% (Jul 11, 6:53 pm)29.85 "Hg (Jul 16, 6:53 pm)
Average86 °F62%30.00 "Hg
* Reported Jul 5 6:37 pm — Jul 20 6:53 pm, Carrollton. Weather by CustomWeather, © 2017

Note: Actual official high and low records may vary slightly from our data, if they occured in-between our weather recording intervals... More about our weather records

Advertising

Carrollton Weather History for the Previous 24 Hours

Scroll right to see more
 ConditionsComfort  
Time TempWeatherWind HumidityBarometerVisibility
6:53 pm
Thu, Jul 20
96 °FPassing clouds.13 mph41%29.93 "Hg10 mi
5:53 pm98 °FPassing clouds.10 mph38%29.95 "Hg10 mi
4:53 pm98 °FPassing clouds.6 mph35%29.97 "Hg10 mi
3:53 pm97 °FScattered clouds.6 mph36%29.98 "Hg10 mi
2:53 pm97 °FScattered clouds.6 mph39%30.01 "Hg10 mi
1:53 pm98 °FScattered clouds.5 mph38%30.03 "Hg10 mi
12:53 pm96 °FPassing clouds.8 mph41%30.06 "Hg10 mi
11:53 am94 °FPassing clouds.8 mph48%30.08 "Hg10 mi
10:53 am92 °FPassing clouds.8 mph52%30.09 "Hg10 mi
9:53 am89 °FPassing clouds.9 mph59%30.09 "Hg10 mi
8:53 am86 °FPassing clouds.8 mph65%30.10 "Hg10 mi
7:53 am84 °FPassing clouds.8 mph70%30.09 "Hg10 mi
6:53 am82 °FPassing clouds.6 mph72%30.09 "Hg10 mi
5:53 am82 °FPassing clouds.8 mph72%30.08 "Hg10 mi
4:53 am83 °FPassing clouds.7 mph70%30.06 "Hg10 mi
3:53 am83 °FPassing clouds.8 mph70%30.05 "Hg10 mi
2:53 am85 °FClear.12 mph63%30.04 "Hg10 mi
1:53 am86 °FClear.13 mph61%30.04 "Hg10 mi
12:53 am87 °FPassing clouds.14 mph57%30.04 "Hg10 mi
11:53 pm
Wed, Jul 19
88 °FPassing clouds.14 mph55%30.03 "Hg10 mi
10:53 pm90 °FPassing clouds.13 mph50%30.02 "Hg10 mi
9:53 pm91 °FPassing clouds.12 mph45%30.01 "Hg10 mi
8:53 pm91 °FPassing clouds.14 mph47%30.00 "Hg10 mi
Weather by CustomWeather, © 2017

See weather overviewHow to use our weather pages